KenzoPoker : Agen Poker Online Indonesia, Agen Judi Poker, Agen Poker Terpercaya

Jackpot

Texas Poker Multi Jackpot System

Kini Telah hadir Jackpot SUPER ROYAL FLUSH

Kini Telah hadir Jackpot 2000 (khusus table VIP keatas).

Ikutilah global jackpot yang tersedia di system kami, dengan system jackpot terbaru dan pertama di indonesia, anda dapat membeli jackpot dengan harga 100 rupiah saja dan menangkan hadiahnya hingga puluhan juta rupiah.

Jackpot bukanlah suatu keharusan untuk dibeli, namun kami memberikan suatu fitur tambahan untuk member tercinta dari www.kenzopoker.com.

Terdapat tiga pilihan harga jackpot yang bisa anda beli yaitu :100,500,1000 dan 2000(khusus table VIP Keatas) rupiah.

Hadiah dari Multi jackpot system www.kenzopoker.com

  1. full house x 10 harga jackpot yang anda beli.
      (contoh:anda membeli 1000 maka:1000 X10 = 10.000)
  2. four of kind x 250 harga jackpot yang anda beli
      (contoh:anda membeli 1000 maka:1000 X250 = 250.000)
  3. Straight flush x 1200
      (contoh:anda membeli 1000 maka:1000 X1200 = 1.200.000)
  4. Royal flush x 10000 harga jackpot yang anda beli
      (contoh:anda membeli 1000 maka:1000 X10000 = 10.000.000)
  5. SUPER ROYAL FLUSH x 30000 harga jackpot yang anda beli
      (contoh:anda membeli 1000 maka:1000 X30000 = 30.000.000)

Kondisi kartu

  1. full house adalah kondisi kartu dimana kartu anda dan kartu tengah dengan total 7 kartu bisa mendapatkan nilai 5 kartu dengan kombinasi 1 tris(three of kind) dan 1 pair, contoh 3 kartu 10 dan 2 kartu 5
  2. Four of kind adalah kondisi kartu dimana kartu anda dan kartu tengah dengan total 7 kartu bisa mendapatkan nilai 5 kartu dengan kombinasi 4 kartu yang sama jumlah dan 1 kartu apapun juga contoh anda mendapatkan 4 buah kartu angka 3 dan 1 kartu apapun.
  3. Staright flush adalah kondisi kartu dimana kartu anda dan kartu tengah dengan total 7 kartu bisa mendapatkan nilai 5 kartu dengan kombinasi seri / staright dengan kembang yang sama contoh : urutan kartu dari angka 5, 6, 7, 8 , 9 10 dengan kembang yg sama misalnya as hati
  4. Royal flush adalah kondisi kartu dimana kartu anda dan kartu tengah dengan total 7 kartu bisa mendapatkan nilai 5 kartu dengan kombinasi seri / staright dengan kembang yang sama tetapi kartu tersebut haruslah dimulai dari 10. contoh 10, Queen, Jack, King dan aces dengan kembang yang sama
  5. Super Royal flush adalah kondisi kartu dimana Kedua kartu anda digabung dengan 3 kartu pertama meja haruslah royal flush. contoh kartu anda 10,Queen kembang sama dan 3 kartu pertama meja adalah Jack, King dan aces dengan kembang yang sama

Demikian adalah penjelasan dari Multi Jackpot www.kenzopoker.com terima kasih dan selamat bermain salam hoki dari kami

Texas Poker Jackpot Winner

TOP SUPER ROYAL FLUSH
No.TanggalNamaPriceWin
126/03 07:29SANTANA79Super Royal flush15,000,000
226/03 06:59MBAUNGGSuper Royal flush3,000,000
326/03 03:48PEMENANG35Super Royal flush15,000,000
426/03 01:15MEGAN21Super Royal flush15,000,000
526/03 01:13JONGKIASSuper Royal flush30,000,000
TOP ROYAL FLUSH
No.TanggalNamaPriceWin
126/03 08:15SEBES1Royal flush5,000,000
226/03 07:49DPOJA42EXARoyal flush10,000,000
326/03 07:16JOERIXRoyal flush5,000,000
426/03 07:15DEJAVU008Royal flush5,000,000
526/03 06:42JONGCHANRoyal flush1,000,000
TOP STRAIGHT FLUSH
No.TanggalNamaPriceWin
126/03 08:22B6301UTWStraight Flush600,000
226/03 08:20KHANZAKI99Straight Flush120,000
326/03 08:10NANA50Straight Flush600,000
426/03 08:06LINU78Straight Flush600,000
526/03 08:02PHILIPE7Straight Flush1,200,000
LATEST JACKPOT
No.TanggalNamaPriceWin
126/03 08:23JAYASMPFull House1,000
226/03 08:23ADITT8Full House10,000
326/03 08:23ATHALIA250Full House10,000
426/03 08:23BAYCLIN99Full House1,000
526/03 08:23HAYAT01Full House1,000
626/03 08:23DAPUTRAFull House5,000
726/03 08:23URAN9Full House10,000
826/03 08:23MSC69Full House1,000
926/03 08:23JABRIXC0YFull House1,000
1026/03 08:23DIKI19Four Of A Kind125,000
1126/03 08:23TRIOIBEN99Full House1,000
1226/03 08:23JEMBER93Full House5,000
1326/03 08:23UUL_77Full House1,000
1426/03 08:23AKUHOKI900Full House1,000
1526/03 08:23COXYUN88Full House5,000
1626/03 08:23OM_NOKFull House10,000
1726/03 08:22BAP40Full House5,000
1826/03 08:22DHY23Full House1,000
1926/03 08:22MOY999Full House1,000
2026/03 08:22WIRO2112Full House1,000
2126/03 08:22JULIA214Four Of A Kind25,000
2226/03 08:22Y4D123Full House1,000
2326/03 08:22APRILIANTOFull House1,000
2426/03 08:22TFAN007Full House1,000
2526/03 08:22LOBUR75Full House1,000
2626/03 08:22REREE7878Full House20,000
2726/03 08:22OJAN99Full House10,000
2826/03 08:22ZUHARA9Full House5,000
2926/03 08:22WIRO2112Four Of A Kind25,000
3026/03 08:22KAMIKAZE02Full House5,000
3126/03 08:22MABKHUT86Full House10,000
3226/03 08:22B6301UTWStraight Flush600,000
3326/03 08:22KAYUNBGFull House1,000
3426/03 08:22YUYU30Full House5,000
3526/03 08:22BENJI07Full House10,000
3626/03 08:22ZUA90Full House5,000
3726/03 08:22A954281CFull House1,000
3826/03 08:22LAMBOT333Full House10,000
3926/03 08:22SIHEANGFull House5,000
4026/03 08:22ARIFTWEJ93Full House5,000
4126/03 08:22RON4LDO777Full House10,000
4226/03 08:22POT889Four Of A Kind125,000
4326/03 08:21H4JVSCE9J9Full House1,000
4426/03 08:21RUBY308Full House1,000
4526/03 08:21C3SCH4RDFull House5,000
4626/03 08:21DEWAORFull House5,000
4726/03 08:21ARIIKAHFull House5,000
4826/03 08:21CERMEASFull House10,000
4926/03 08:21UGROS88Full House5,000
5026/03 08:21DEAD22Full House1,000

Domino Multi Jackpot System

Ikutilah global jackpot yang tersedia di system kami, dengan system jackpot terbaru dan pertama di indonesia, anda dapat membeli jackpot dengan harga 100 rupiah saja dan menangkan hadiahnya hingga puluhan juta rupiah.

Jackpot bukanlah suatu keharusan untuk dibeli, namun kami memberikan suatu fitur tambahan untuk member tercinta dari www.kenzopoker.com.

Terdapat tiga pilihan harga jackpot yang bisa anda beli yaitu :100,500 dan 1000 rupiah.

Hadiah dari Multi jackpot system www.kenzopoker.com

  1. Murni Kecil x 50 harga jackpot yang anda beli.
      (contoh:anda membeli 1000 maka:1000 X 50 = 50.000)
  2. Murni Besar x 50 harga jackpot yang anda beli
      (contoh:anda membeli 1000 maka:1000 X 50 = 50.000)
  3. BALAK x 100 harga jackpot yang anda beli
      (contoh:anda membeli 1000 maka:1000 X 100 = 100.000)
  4. ENAM DEWA x 6666 harga jackpot yang anda beli
      (contoh:anda membeli 1000 maka:1000 X 6666 = 6.666.000)

Demikian adalah penjelasan dari Multi Jackpot www.kenzopoker.com terima kasih dan selamat bermain salam hoki dari kami

Domino Jackpot Winner

TOP ENAM DEWA
No.TanggalNamaPriceWin
126/03 06:37ACAYTULA14murni enam3,333,000
226/03 02:09ROOKIE87murni enam6,666,000
325/03 23:24PERUGIAmurni enam6,666,000
425/03 23:12ANDIBA23murni enam666,600
525/03 22:06A9BZ43XB88murni enam666,600
TOP BALAK
No.TanggalNamaPriceWin
126/03 08:06RIIDZ7balak10,000
226/03 07:58IT0balak100,000
326/03 07:49TAUTEMPEbalak50,000
426/03 07:46ALULbalak100,000
526/03 07:42KIU2222balak100,000
LATEST JACKPOT
No.TanggalNamaPriceWin
126/03 08:21BOZZAA702murni besar50,000
226/03 08:18PAPAJACK66murni kecil5,000
326/03 08:17JACKHIEmurni besar5,000
426/03 08:15IQOY12murni kecil50,000
526/03 08:13AMBROZIImurni besar50,000
626/03 08:07ALIFA888murni kecil5,000
726/03 08:07LY17murni besar50,000
826/03 08:06RIIDZ7balak10,000
926/03 08:04WANGGAI123murni besar25,000
1026/03 08:03BUTDIX66XUmurni kecil50,000
1126/03 08:03BODONG003murni kecil25,000
1226/03 08:01SAMASZ45murni besar25,000
1326/03 07:59CECER67murni kecil25,000
1426/03 07:58IT0balak100,000
1526/03 07:57J4Y41980murni besar25,000
1626/03 07:57FLUS25murni besar5,000
1726/03 07:57RAMBO771murni besar50,000
1826/03 07:54RDM11murni kecil50,000
1926/03 07:51DARDY0303murni besar5,000
2026/03 07:50IT0murni kecil50,000
2126/03 07:49TAUTEMPEbalak50,000
2226/03 07:49JACKPOTZ1murni besar25,000
2326/03 07:49GAMBLISTmurni kecil25,000
2426/03 07:48ANAM1112murni besar50,000
2526/03 07:48JAZZ85murni besar50,000
2626/03 07:46ALULbalak100,000
2726/03 07:46RAJA_KERAmurni kecil25,000
2826/03 07:42KIU2222balak100,000
2926/03 07:42JYANGLEEmurni kecil50,000
3026/03 07:40ILMIRA16murni kecil50,000
3126/03 07:39DX069murni besar50,000
3226/03 07:38KBA6WTT4RHmurni kecil50,000
3326/03 07:38BACKTOZEROmurni besar5,000
3426/03 07:37FEIVEL86murni besar50,000
3526/03 07:37BEFITmurni kecil25,000
3626/03 07:34KIMAK37murni besar5,000
3726/03 07:33SDM09murni besar50,000
3826/03 07:32CAKRA81murni kecil25,000
3926/03 07:30T4R4Kbalak50,000
4026/03 07:2925252525balak50,000
4126/03 07:29SITILENA99murni besar25,000
4226/03 07:25JEL999murni kecil50,000
4326/03 07:24VERO_JSmurni besar50,000
4426/03 07:24CAKRA81murni kecil25,000
4526/03 07:24UTUH0101murni kecil25,000
4626/03 07:23TUS99murni kecil5,000
4726/03 07:22LUTHFIHRPbalak100,000
4826/03 07:21BASMIE99balak10,000
4926/03 07:19SDM09murni kecil50,000
5026/03 07:19MOCHHADIMmurni kecil5,000

Ceme Multi Jackpot System

Jackpot dilihat dari gabungan kartu pemain dengan kartu bandar. Bandar harus membeli jackpot sebanyak jumlah player yang sedang duduk. Sebagai contoh bila terdapat 3 pemain duduk bermain, dan bandar memutuskan untuk membeli jackpot Rp 1.000, maka pada periode tersebut bandar akan membeli jackpot sebanyak 3xRp1.000 = Rp3.000.

Jackpot bukanlah suatu keharusan untuk dibeli, namun kami memberikan suatu fitur tambahan untuk member tercinta dari www.kenzopoker.com.

Terdapat tiga pilihan harga jackpot yang bisa anda beli yaitu :100,500 dan 1000 rupiah.

Hadiah dari Multi jackpot system www.kenzopoker.com

  1. Murni Kecil x 50 harga jackpot yang anda beli.
      (contoh:anda membeli 1000 maka:1000 X 50 = 50.000)
  2. Murni Besar x 50 harga jackpot yang anda beli
      (contoh:anda membeli 1000 maka:1000 X 50 = 50.000)
  3. BALAK x 200 harga jackpot yang anda beli
      (contoh:anda membeli 1000 maka:1000 X 200 = 200.000)
  4. ENAM DEWA x 6666 harga jackpot yang anda beli
      (contoh:anda membeli 1000 maka:1000 X 6666 = 6.666.000)

Demikian adalah penjelasan dari Multi Jackpot www.kenzopoker.com terima kasih dan selamat bermain salam hoki dari kami

Ceme Jackpot Winner

TOP ENAM DEWA
No.TanggalNamaPriceWin
126/03 08:09LYSIAFUNQmurni enam3,333,000
226/03 07:29ZY8MKNIPOSmurni enam6,666,000
326/03 07:26INDLAmurni enam6,666,000
426/03 05:23OSCAR1murni enam3,333,000
526/03 03:56GUMOK11murni enam6,666,000
TOP BALAK
No.TanggalNamaPriceWin
126/03 08:22A1703DEEbalak100,000
226/03 08:22ANTON315balak200,000
326/03 08:22NIKEUbalak200,000
426/03 08:22P1H24I9XG5balak200,000
526/03 08:20LILO97balak200,000
LATEST JACKPOT
No.TanggalNamaPriceWin
126/03 08:22A1703DEEbalak100,000
226/03 08:22ACONGJJmurni kecil25,000
326/03 08:22BIEBIE33murni kecil5,000
426/03 08:22ANTON315balak200,000
526/03 08:22NIKEUbalak200,000
626/03 08:22ANTON315murni kecil50,000
726/03 08:22P1H24I9XG5balak200,000
826/03 08:21WEWE_11murni kecil50,000
926/03 08:21WEWE_11murni kecil50,000
1026/03 08:21D3P4K01murni kecil50,000
1126/03 08:21ANYOEmurni kecil50,000
1226/03 08:21MALING02murni kecil5,000
1326/03 08:21JONN3733murni besar5,000
1426/03 08:21ASMEN123murni kecil50,000
1526/03 08:20LILO97balak200,000
1626/03 08:20JO2505balak200,000
1726/03 08:20TER0NG69murni kecil50,000
1826/03 08:20BUNGSU33murni besar5,000
1926/03 08:20KERAMIK8murni besar5,000
2026/03 08:20YADI07175balak200,000
2126/03 08:20ARA280312balak100,000
2226/03 08:20RANGGANDUTmurni besar50,000
2326/03 08:20D111RTTmurni kecil50,000
2426/03 08:20KINGBAGONGbalak200,000
2526/03 08:19RASLINI7murni besar50,000
2626/03 08:19SHEPP_88murni besar50,000
2726/03 08:19CEKKY123balak20,000
2826/03 08:1999TERUSmurni kecil50,000
2926/03 08:18JANUTRImurni besar50,000
3026/03 08:18ANDRESILmurni besar50,000
3126/03 08:18JO2505murni kecil50,000
3226/03 08:17BOGELARV77murni besar25,000
3326/03 08:17ASMEN123balak200,000
3426/03 08:17ARCHER50murni kecil25,000
3526/03 08:17D3NN5murni kecil50,000
3626/03 08:17R444murni kecil50,000
3726/03 08:17BLACKDEATHmurni kecil50,000
3826/03 08:17SAJA99balak20,000
3926/03 08:17MERANTI91murni kecil50,000
4026/03 08:17BOGELARV77murni besar25,000
4126/03 08:16APIP78murni kecil5,000
4226/03 08:16LCTDAYA1murni besar50,000
4326/03 08:16PENGEMIS21murni kecil5,000
4426/03 08:16GILO86murni besar50,000
4526/03 08:15MERANTI91balak200,000
4626/03 08:15NYARAPbalak100,000
4726/03 08:15GAR6NGmurni besar50,000
4826/03 08:14ERVITA9murni kecil50,000
4926/03 08:14PUCAW009murni besar50,000
5026/03 08:14COMBOAAmurni besar25,000